Location: Voyageurs National Park
(48.5020°N, 92.9292°W)
Time: 10:20:32
(UTC-05:00)

PCSat - Visible Passes

Search period start: 23 October 2017 00:00
Search period end: 02 November 2017 00:00
Orbit: 786 x 794 km, 67.0° (Epoch: 22 October)

Date Brightness Start Highest point End Pass type
(mag) Time Alt. Az. Time Alt. Az. Time Alt. Az.
23 Oct 12.8 18:45:41 10° WNW 18:48:44 15° WSW 18:51:47 10° SW visible
25 Oct 12.0 07:15:41 10° S 07:20:18 29° ESE 07:24:56 10° NE visible
26 Oct 12.4 06:45:29 10° SSE 06:49:35 22° ESE 06:53:40 10° ENE visible
27 Oct 12.6 06:15:36 10° SE 06:18:53 16° ESE 06:22:11 10° ENE visible
28 Oct 12.8 05:46:20 10° ESE 05:48:15 12° ESE 05:50:09 10° E visible
29 Oct 10.5 06:54:33 10° SSW 06:59:49 54° ESE 07:05:07 10° NE visible
30 Oct 11.0 06:23:58 10° S 06:29:00 41° ESE 06:34:04 10° NE visible
31 Oct 11.4 05:53:33 10° S 05:58:15 31° ESE 06:02:57 10° NE visible
01 Nov 11.8 05:23:19 10° SSE 05:27:30 23° ESE 05:31:43 10° ENE visible
01 Nov 9.6 07:05:03 10° SW 07:10:27 66° NW 07:15:53 10° NNE visible
